GW0795 Weather Reports


time (UTC)temp
F
wind
direction
speed
knots
gust
knots
rain 1hr
in
rain 24hr
in
rain mn
in
humidity
%
barometer
mb
20260906222504 71 275 1.7 6.1 0.00 0.00 0.00 51 1015.5
20260906222004 70 271 1.7 6.1 0.00 0.00 0.00 52 1015.5
20260906221509 70 319 1.7 4.3 0.00 0.00 0.00 52 1015.5
20260906221008 70 265 1.7 5.2 0.00 0.00 0.00 54 1015.5
20260906220506 69 264 2.6 6.1 0.00 0.00 0.00 54 1015.5
20260906220011 69 9 3.5 6.1 0.00 0.00 0.00 54 1015.4
20260906215513 69 277 2.6 6.1 0.00 0.00 0.00 55 1015.4
20260906215009 69 257 2.6 6.1 0.00 0.00 0.00 54 1015.4
20260906214518 69 300 1.7 6.1 0.00 0.00 0.00 54 1015.4
20260906214008 69 250 0.9 6.1 0.00 0.00 0.00 54 1015.4
20260906213509 69 289 1.7 7.0 0.00 0.00 0.00 55 1015.4
20260906213003 68 246 0.9 7.0 0.00 0.00 0.00 55 1015.4
20260906212503 69 273 1.7 5.2 0.00 0.00 0.00 55 1015.4
20260906212004 69 273 0.9 6.1 0.00 0.00 0.00 55 1015.3
20260906211507 69 269 1.7 6.1 0.00 0.00 0.00 55 1015.3
20260906211006 69 290 1.7 7.8 0.00 0.00 0.00 54 1015.4
20260906210508 69 279 2.6 7.8 0.00 0.00 0.00 55 1015.4
20260906210020 68 340 2.6 8.7 0.00 0.00 0.00 55 1015.5
20260906205509 69 349 3.5 8.7 0.00 0.00 0.00 54 1015.5
20260906205010 69 295 3.5 7.0 0.00 0.00 0.00 54 1015.5
20260906204518 69 227 2.6 7.0 0.00 0.00 0.00 54 1015.6
20260906204010 69 279 2.6 6.1 0.00 0.00 0.00 54 1015.6
20260906203512 69 39 1.7 7.8 0.00 0.00 0.00 56 1015.6
20260906203018 69 282 3.5 7.8 0.00 0.00 0.00 56 1015.6
20260906202510 69 323 1.7 6.1 0.00 0.00 0.00 56 1015.6
20260906202012 69 288 1.7 5.2 0.00 0.00 0.00 57 1015.6
20260906201507 68 302 1.7 5.2 0.00 0.00 0.00 58 1015.7
20260906201007 69 298 0.9 7.0 0.00 0.00 0.00 58 1015.6
20260906200503 69 26 2.6 7.0 0.00 0.00 0.00 56 1015.7
20260906200007 69 9 4.3 8.7 0.00 0.00 0.00 52 1015.7
20260906195505 69 352 3.5 8.7 0.00 0.00 0.00 55 1015.7
20260906195006 69 292 2.6 10.4 0.00 0.00 0.00 56 1015.8
20260906194517 69 290 2.6 10.4 0.00 0.00 0.00 55 1015.7
20260906194011 69 9 3.5 8.7 0.00 0.00 0.00 55 1015.8
20260906193512 69 279 1.7 8.7 0.00 0.00 0.00 57 1015.8
20260906193020 68 350 1.7 11.3 0.00 0.00 0.00 56 1015.9
20260906192511 68 258 5.2 11.3 0.00 0.00 0.00 57 1015.9
20260906192013 68 48 3.5 8.7 0.00 0.00 0.00 57 1016.0
20260906191518 68 311 4.3 7.0 0.00 0.00 0.00 57 1016.0
20260906191011 67 360 1.7 8.7 0.00 0.00 0.00 55 1016.1
20260906190513 68 52 2.6 8.7 0.00 0.00 0.00 57 1016.1
20260906190007 67 46 2.6 9.6 0.00 0.00 0.00 57 1016.2
20260906185506 67 348 1.7 9.6 0.00 0.00 0.00 57 1016.2
20260906185007 67 342 4.3 9.6 0.00 0.00 0.00 59 1016.2
20260906184511 67 24 2.6 7.8 0.00 0.00 0.00 60 1016.2
20260906184009 67 290 4.3 7.8 0.00 0.00 0.00 58 1016.2
20260906183511 67 308 3.5 7.8 0.00 0.00 0.00 59 1016.2
20260906183017 67 32 1.7 3.5 0.00 0.00 0.00 58 1016.2
20260906182513 67 304 0.9 5.2 0.00 0.00 0.00 62 1016.2
20260906182011 66 294 1.7 7.0 0.00 0.00 0.00 63 1016.1
20260906181532 65 335 1.7 7.0 0.00 0.00 0.00 64 1016.1
20260906181014 64 284 2.6 5.2 0.00 0.00 0.00 67 1016.1
20260906180513 64 5 1.7 6.1 0.00 0.00 0.00 69 1016.0
20260906180027 64 316 1.7 6.1 0.00 0.00 0.00 68 1016.1
20260906175513 62 313 2.6 6.1 0.00 0.00 0.00 72 1016.2
20260906175018 62 275 1.7 6.1 0.00 0.00 0.00 73 1016.3
20260906174513 61 262 2.6 6.1 0.00 0.00 0.00 73 1016.4
20260906174008 62 277 1.7 6.1 0.00 0.00 0.00 71 1016.5
20260906173508 62 339 0.9 5.2 0.00 0.00 0.00 71 1016.5
20260906173012 62 290 1.7 5.2 0.00 0.00 0.00 72 1016.5
20260906172511 61 321 1.7 3.5 0.00 0.00 0.00 72 1016.6
20260906172015 61 270 0.9 3.5 0.00 0.00 0.00 72 1016.6
20260906171523 61 293 1.7 5.2 0.00 0.00 0.00 72 1016.7
20260906171016 61 307 2.6 5.2 0.00 0.00 0.00 71 1016.7
20260906170514 61 293 1.7 3.5 0.00 0.00 0.00 72 1016.6
20260906170027 61 329 0.9 3.5 0.00 0.00 0.00 72 1016.6
20260906165514 60 286 0.9 5.2 0.00 0.00 0.00 72 1016.7
20260906165016 60 298 1.7 5.2 0.00 0.00 0.00 73 1016.8
20260906164530 61 277 1.7 3.5 0.00 0.00 0.00 71 1016.8
20260906164016 61 330 0.0 1.7 0.00 0.00 0.00 72 1016.8
20260906163515 60 5 0.9 1.7 0.00 0.00 0.00 74 1016.8
20260906163020 60 352 0.9 2.6 0.00 0.00 0.00 75 1016.8
20260906162508 60 135 1.7 3.5 0.00 0.00 0.00 73 1016.8
20260906162011 59 103 1.7 3.5 0.00 0.00 0.00 75 1016.8
20260906161518 59 116 1.7 2.6 0.00 0.00 0.00 75 1016.8
20260906161015 59 71 0.9 2.6 0.00 0.00 0.00 76 1016.7
20260906160514 59 42 0.9 2.6 0.00 0.00 0.00 76 1016.7
20260906160035 59 124 1.7 3.5 0.00 0.00 0.00 77 1016.6
20260906155512 58 25 0.9 3.5 0.00 0.00 0.00 77 1016.6
20260906155020 58 329 1.7 2.6 0.00 0.00 0.00 77 1016.5
20260906154505 59 9 0.9 4.3 0.00 0.00 0.00 77 1016.4
20260906154004 58 352 0.9 4.3 0.00 0.00 0.00 78 1016.3
20260906153504 58 46 0.9 3.5 0.00 0.00 0.00 79 1016.3
20260906153012 58 352 2.6 3.5 0.00 0.00 0.00 79 1016.3
20260906152509 58 88 1.7 2.6 0.00 0.00 0.00 79 1016.4
20260906152008 58 22 0.9 3.5 0.00 0.00 0.00 79 1016.3
20260906151515 57 339 0.9 3.5 0.00 0.00 0.00 79 1016.3
20260906151011 57 22 0.0 3.5 0.00 0.00 0.00 80 1016.3
20260906150512 57 352 1.7 3.5 0.00 0.00 0.00 81 1016.2
20260906150002 56 360 0.9 2.6 0.00 0.00 0.00 82 1016.2
20260906145501 55 92 0.0 0.0 0.00 0.00 0.00 83 1016.3
20260906145004 54 92 0.0 0.0 0.00 0.00 0.00 83 1016.2
20260906144506 54 92 0.0 0.0 0.00 0.00 0.00 83 1016.2
20260906144006 54 92 0.0 0.0 0.00 0.00 0.00 85 1016.4
20260906143506 53 92 0.0 0.0 0.00 0.00 0.00 86 1016.5
20260906143008 53 92 0.0 0.0 0.00 0.00 0.00 86 1016.5
20260906142512 53 92 0.0 0.0 0.00 0.00 0.00 86 1016.4
20260906142006 53 92 0.0 0.0 0.00 0.00 0.00 86 1016.4
20260906141513 53 92 0.0 0.0 0.00 0.00 0.00 86 1016.4
20260906141012 53 92 0.0 0.0 0.00 0.00 0.00 86 1016.4
20260906140512 52 92 0.0 0.0 0.00 0.00 0.00 87 1016.3
20260906140038 52 92 0.0 0.0 0.00 0.00 0.00 87 1016.5
20260906135512 52 92 0.0 0.0 0.00 0.00 0.00 88 1016.3
20260906135013 52 92 0.0 0.9 0.00 0.00 0.00 87 1016.3
20260906134528 52 92 0.0 0.9 0.00 0.00 0.00 88 1016.2
20260906134004 52 92 0.0 1.7 0.00 0.00 0.00 88 1016.1
20260906133505 52 98 0.0 1.7 0.00 0.00 0.00 87 1016.2
20260906133006 52 98 0.0 1.7 0.00 0.00 0.00 87 1016.1
20260906132506 52 98 0.0 1.7 0.00 0.00 0.00 87 1016.1
20260906132007 52 98 0.0 1.7 0.00 0.00 0.00 87 1016.2
20260906131516 53 98 0.0 3.5 0.00 0.00 0.00 87 1016.2
20260906131009 53 98 0.0 3.5 0.00 0.00 0.00 86 1016.2
20260906130508 53 94 0.9 2.6 0.00 0.00 0.00 87 1016.2
20260906130033 53 98 0.0 1.7 0.00 0.00 0.00 87 1016.2
20260906125509 54 26 0.0 0.0 0.00 0.00 0.00 87 1016.2
20260906125015 54 26 0.0 0.0 0.00 0.00 0.00 87 1016.2
20260906124526 54 5 0.0 0.0 0.00 0.00 0.00 87 1016.3
20260906124016 54 44 0.0 0.0 0.00 0.00 0.00 87 1016.3
20260906123512 54 40 0.0 0.9 0.00 0.00 0.00 87 1016.3
20260906123034 54 49 0.0 1.7 0.00 0.00 0.00 87 1016.4
20260906122504 54 44 0.0 1.7 0.00 0.00 0.00 88 1016.3
20260906122004 54 31 0.0 0.9 0.00 0.00 0.00 88 1016.3
20260906121507 54 352 0.0 0.0 0.00 0.00 0.00 88 1016.2
20260906121008 54 352 0.0 0.0 0.00 0.00 0.00 88 1016.2
20260906120508 54 352 0.0 0.0 0.00 0.00 0.00 87 1016.2
20260906120016 54 352 0.0 0.0 0.00 0.00 0.00 87 1016.3
20260906115512 54 352 0.0 0.0 0.00 0.00 0.00 87 1016.2
20260906115011 54 352 0.0 0.0 0.00 0.00 0.00 87 1016.2
20260906114519 54 352 0.0 0.0 0.00 0.00 0.00 87 1016.3
20260906114016 54 49 0.0 0.0 0.00 0.00 0.00 87 1016.5
20260906113514 54 79 0.0 0.0 0.00 0.00 0.00 87 1016.5
20260906113040 54 79 0.0 0.0 0.00 0.00 0.00 87 1016.5
20260906112514 54 79 0.0 0.0 0.00 0.00 0.00 86 1016.5
20260906112020 54 60 0.0 0.0 0.00 0.00 0.00 85 1016.5
20260906111534 54 60 0.0 0.0 0.00 0.00 0.00 84 1016.5
20260906111003 55 60 0.0 0.0 0.00 0.00 0.00 83 1016.5
20260906110510 55 60 0.0 0.0 0.00 0.00 0.00 83 1016.5
20260906110015 55 60 0.0 0.0 0.00 0.00 0.00 82 1016.5
20260906105511 55 13 0.0 0.0 0.00 0.00 0.00 82 1016.4
20260906105012 55 13 0.0 0.0 0.00 0.00 0.00 82 1016.3
20260906104518 55 22 0.0 0.0 0.00 0.00 0.00 82 1016.3
20260906104010 55 17 0.0 0.0 0.00 0.00 0.00 82 1016.3
20260906103511 55 19 0.0 0.0 0.00 0.00 0.00 82 1016.3
20260906103023 55 19 0.0 0.0 0.00 0.00 0.00 82 1016.2
20260906102512 55 19 0.0 0.0 0.00 0.00 0.00 82 1016.3
20260906102016 55 19 0.0 0.0 0.00 0.00 0.00 81 1016.3
20260906101531 55 19 0.0 0.0 0.00 0.00 0.00 81 1016.4
20260906101014 56 19 0.0 0.0 0.00 0.00 0.00 81 1016.4
20260906100516 55 19 0.0 0.9 0.00 0.00 0.00 81 1016.3
20260906100030 55 19 0.0 1.7 0.00 0.00 0.00 81 1016.3
20260906095507 55 19 0.0 1.7 0.00 0.00 0.00 80 1016.3
20260906095008 56 19 0.0 1.7 0.00 0.00 0.00 80 1016.4
20260906094524 56 19 0.0 1.7 0.00 0.00 0.00 80 1016.4
20260906094008 56 18 0.0 1.7 0.00 0.00 0.00 80 1016.4
20260906093512 55 18 0.0 1.7 0.00 0.00 0.00 81 1016.3
20260906093023 55 331 0.0 1.7 0.00 0.00 0.00 80 1016.3
20260906092513 55 335 0.0 1.7 0.00 0.00 0.00 80 1016.3
20260906092013 55 335 0.0 1.7 0.00 0.00 0.00 80 1016.4
20260906091530 55 9 0.0 0.0 0.00 0.00 0.00 80 1016.4
20260906091016 55 5 0.0 0.0 0.00 0.00 0.00 79 1016.5
20260906090506 55 5 0.0 0.0 0.00 0.00 0.00 78 1016.4
20260906090008 56 5 0.0 0.0 0.00 0.00 0.00 78 1016.3
20260906085508 56 9 0.0 0.0 0.00 0.00 0.00 77 1016.3
20260906085010 56 5 0.0 0.0 0.00 0.00 0.00 77 1016.3
20260906084520 57 5 0.0 0.0 0.00 0.00 0.00 76 1016.2
20260906084010 57 5 0.0 1.7 0.00 0.00 0.00 76 1016.3
20260906083511 57 9 0.0 1.7 0.00 0.00 0.00 76 1016.2
20260906083024 56 352 0.0 0.9 0.00 0.00 0.00 76 1016.3
20260906082514 56 9 0.0 0.9 0.00 0.00 0.00 76 1016.3
20260906082001 56 9 0.0 0.0 0.00 0.00 0.00 76 1016.4
20260906081515 56 9 0.0 0.0 0.00 0.00 0.00 75 1016.4
20260906081005 57 9 0.0 0.0 0.00 0.00 0.00 74 1016.4
20260906080506 57 9 0.0 0.0 0.00 0.00 0.00 75 1016.4
20260906080004 56 9 0.0 2.6 0.00 0.00 0.00 75 1016.4
20260906075504 56 9 0.9 2.6 0.00 0.00 0.00 77 1016.4
20260906075004 55 9 0.0 0.0 0.00 0.00 0.00 79 1016.4
20260906074508 55 9 0.0 0.0 0.00 0.00 0.00 78 1016.4
20260906074007 55 9 0.0 0.0 0.00 0.00 0.00 78 1016.4
20260906073508 55 5 0.0 0.0 0.00 0.00 0.00 79 1016.6
20260906073016 55 9 0.0 0.0 0.00 0.00 0.00 79 1016.6
20260906072509 55 9 0.0 0.0 0.00 0.00 0.00 78 1016.6
20260906072013 55 9 0.0 0.0 0.00 0.00 0.00 78 1016.7
20260906071523 55 5 0.0 0.0 0.00 0.00 0.00 78 1016.6
20260906071012 56 9 0.0 0.0 0.00 0.00 0.00 77 1016.7
20260906070505 56 9 0.0 0.0 0.00 0.00 0.00 76 1016.7
20260906070006 56 9 0.0 0.0 0.00 0.00 0.00 76 1016.7
20260906065504 56 9 0.0 0.0 0.00 0.00 0.00 76 1016.7
20260906065006 57 9 0.0 0.0 0.00 0.00 0.00 75 1016.7
20260906064510 57 9 0.0 0.0 0.00 0.00 0.00 75 1016.8
20260906064008 57 9 0.0 0.0 0.00 0.00 0.00 74 1016.7
20260906063504 58 9 0.0 0.0 0.00 0.00 0.00 73 1016.7
20260906063013 58 9 0.0 0.0 0.00 0.00 0.00 73 1016.7
20260906062507 58 9 0.0 0.0 0.00 0.00 0.00 73 1016.7
20260906062008 57 5 0.0 0.0 0.00 0.00 0.00 74 1016.7
20260906061522 57 9 0.0 0.0 0.00 0.00 0.00 74 1016.8
20260906061010 57 9 0.0 0.0 0.00 0.00 0.00 75 1016.7
20260906060512 56 9 0.0 0.0 0.00 0.00 0.00 75 1016.7
20260906060029 56 5 0.0 0.0 0.00 0.00 0.00 75 1016.8
20260906055515 57 9 0.0 0.0 0.00 0.00 0.00 74 1016.8
20260906055004 57 9 0.0 0.0 0.00 0.00 0.00 73 1017.0
20260906054507 57 9 0.0 0.0 0.00 0.00 0.00 73 1017.0
20260906054003 57 9 0.0 0.0 0.00 0.00 0.00 72 1017.0
20260906053507 58 9 0.0 0.0 0.00 0.00 0.00 71 1017.0
20260906053009 58 9 0.0 0.0 0.00 0.00 0.00 70 1016.9
20260906052508 59 9 0.0 0.0 0.00 0.00 0.00 69 1016.9
20260906052008 59 5 0.0 0.0 0.00 0.00 0.00 68 1017.0
20260906051516 59 9 0.0 0.0 0.00 0.00 0.00 67 1017.0
20260906051012 60 9 0.0 0.0 0.00 0.00 0.00 66 1017.0
20260906050512 60 9 0.0 0.0 0.00 0.00 0.00 66 1017.0
20260906050047 59 5 0.0 1.7 0.00 0.00 0.00 67 1017.1
20260906045513 60 9 0.0 1.7 0.00 0.00 0.00 66 1017.0
20260906045015 60 9 0.0 0.0 0.00 0.00 0.00 66 1017.0
20260906044529 60 9 0.0 0.0 0.00 0.00 0.00 65 1017.0
20260906044017 60 9 0.0 0.9 0.00 0.00 0.00 64 1017.0
20260906043503 60 9 0.0 1.7 0.00 0.00 0.00 66 1017.0
20260906043009 60 9 0.0 1.7 0.00 0.00 0.00 67 1017.0
20260906042504 60 344 0.0 0.0 0.00 0.00 0.00 65 1017.1
20260906042008 60 344 0.0 0.0 0.00 0.00 0.00 65 1017.1
20260906041517 60 344 0.0 0.0 0.00 0.00 0.00 66 1017.2
20260906041008 60 344 0.0 0.0 0.00 0.00 0.00 66 1017.2
20260906040508 60 344 0.0 0.0 0.00 0.00 0.00 65 1017.2
20260906040018 60 344 0.0 0.0 0.00 0.00 0.00 65 1017.1
20260906035511 60 344 0.0 0.0 0.00 0.00 0.00 67 1017.1
20260906035013 60 344 0.0 0.0 0.00 0.00 0.00 68 1017.1
20260906034536 60 344 0.0 0.0 0.00 0.00 0.00 69 1017.1
20260906034014 59 344 0.0 0.0 0.00 0.00 0.00 70 1017.0
20260906033512 60 344 0.0 1.7 0.00 0.00 0.00 70 1016.9
20260906033031 60 344 0.0 1.7 0.00 0.00 0.00 69 1016.8
20260906032514 60 344 0.0 0.0 0.00 0.00 0.00 69 1016.8
20260906032007 60 344 0.0 0.0 0.00 0.00 0.00 69 1016.8
20260906031509 60 344 0.0 0.0 0.00 0.00 0.00 70 1016.8
20260906031008 60 344 0.0 0.0 0.00 0.00 0.00 69 1016.7
20260906030512 61 344 0.0 0.9 0.00 0.00 0.00 68 1016.8
20260906030016 61 344 0.0 0.9 0.00 0.00 0.00 67 1016.8
20260906025511 62 344 0.0 0.0 0.00 0.00 0.00 66 1016.7
20260906025015 62 344 0.0 0.0 0.00 0.00 0.00 66 1016.7
20260906024522 62 344 0.0 0.0 0.00 0.00 0.00 67 1016.7
20260906024014 63 344 0.0 0.0 0.00 0.00 0.00 67 1016.6
20260906023513 63 344 0.0 0.0 0.00 0.00 0.00 66 1016.6
20260906023027 63 344 0.0 1.7 0.00 0.00 0.00 64 1016.6
20260906022516 63 344 0.0 1.7 0.00 0.00 0.00 64 1016.6
20260906022015 64 344 0.0 0.0 0.00 0.00 0.00 63 1016.6
20260906021530 64 344 0.0 0.0 0.00 0.00 0.00 62 1016.6
20260906021019 64 344 0.0 0.0 0.00 0.00 0.00 61 1016.6
20260906020511 65 344 0.0 1.7 0.00 0.00 0.00 59 1016.6
20260906020016 65 344 0.0 1.7 0.00 0.00 0.00 58 1016.7
20260906015511 65 344 0.0 0.0 0.00 0.00 0.00 58 1016.7
20260906015011 66 344 0.0 1.7 0.00 0.00 0.00 57 1016.6
20260906014521 66 344 0.0 2.6 0.00 0.00 0.00 56 1016.6
20260906014012 67 344 0.9 2.6 0.00 0.00 0.00 55 1016.6
20260906013514 67 323 0.9 2.6 0.00 0.00 0.00 54 1016.6
20260906013023 67 311 0.0 3.5 0.00 0.00 0.00 54 1016.6
20260906012515 67 345 0.0 3.5 0.00 0.00 0.00 53 1016.6
20260906012014 67 338 0.0 2.6 0.00 0.00 0.00 52 1016.6
20260906011530 67 290 0.9 2.6 0.00 0.00 0.00 51 1016.6
20260906011017 67 298 0.0 1.7 0.00 0.00 0.00 52 1016.6
20260906010519 67 311 0.0 2.6 0.00 0.00 0.00 52 1016.6
20260906010031 67 317 0.0 3.5 0.00 0.00 0.00 51 1016.6
20260906005517 67 283 1.7 3.5 0.00 0.00 0.00 51 1016.6
20260906005010 67 290 0.9 3.5 0.00 0.00 0.00 50 1016.5
20260906004514 67 40 0.0 3.5 0.00 0.00 0.00 50 1016.6
20260906004012 67 298 0.9 4.3 0.00 0.00 0.00 49 1016.6
20260906003516 67 289 0.0 4.3 0.00 0.00 0.00 50 1016.5
20260906003005 67 286 0.9 3.5 0.00 0.00 0.00 49 1016.5
20260906002505 67 250 0.9 3.5 0.00 0.00 0.00 48 1016.5
20260906002004 68 269 1.7 3.5 0.00 0.00 0.00 49 1016.4
20260906001504 68 294 0.0 4.3 0.00 0.00 0.00 50 1016.5
20260906001004 68 321 1.7 4.3 0.00 0.00 0.00 52 1016.5
20260906000504 68 340 0.9 4.3 0.00 0.00 0.00 53 1016.5
20260906000007 68 319 0.9 4.3 0.00 0.00 0.00 53 1016.5
20260905235506 68 281 1.7 6.1 0.00 0.00 0.00 53 1016.5
20260905235006 68 282 1.7 6.1 0.00 0.00 0.00 51 1016.6
20260905234510 69 308 1.7 5.2 0.00 0.00 0.00 51 1016.5
20260905234012 68 36 0.9 5.2 0.00 0.00 0.00 51 1016.6
20260905233512 70 285 1.7 5.2 0.00 0.00 0.00 50 1016.6
20260905233026 69 57 0.0 2.6 0.00 0.00 0.00 52 1016.6
20260905232519 68 173 0.9 3.5 0.00 0.00 0.00 52 1016.6
20260905232013 68 262 0.9 3.5 0.00 0.00 0.00 53 1016.6
20260905231504 68 37 1.7 4.3 0.00 0.00 0.00 55 1016.6
20260905231004 68 278 1.7 4.3 0.00 0.00 0.00 55 1016.6
20260905230503 68 288 0.9 3.5 0.00 0.00 0.00 59 1016.6
20260905230005 67 63 0.9 5.2 0.00 0.00 0.00 61 1016.6
20260905225504 67 120 1.7 5.2 0.00 0.00 0.00 62 1016.7
20260905225006 67 167 0.9 2.6 0.00 0.00 0.00 60 1016.7
20260905224513 67 313 0.0 2.6 0.00 0.00 0.00 59 1016.7
20260905224009 68 306 0.9 3.5 0.00 0.00 0.00 60 1016.9
20260905223507 67 350 1.7 3.5 0.00 0.00 0.00 55 1016.9
20260905223017 67 19 0.0 3.5 0.00 0.00 0.00 52 1017.0